Weather History for Newport, AR

Change the Weather History Date:

Wednesday, October 30, 2013

  Actual Average (KJBR) Record (KJBR)
Temperature  
Mean Temperature 68 °F 57 °F  
Max Temperature 74 °F 67 °F 90 °F (1937)
Min Temperature 61 °F 46 °F 22 °F (1917)
Degree Days  
Heating Degree Days 0 9  
Month to date heating degree days 161  
Since 1 July heating degree days 179  
Cooling Degree Days 2 1  
Month to date cooling degree days 52  
Year to date cooling degree days 1823  
Growing Degree Days 18 (Base 50)    
Moisture  
Dew Point 64 °F    
Average Humidity 88    
Maximum Humidity 100    
Minimum Humidity 69    
Precipitation  
Precipitation 0.00 in 0.12 in 3.00 in (2009)
Month to date precipitation 4.15  
Year to date precipitation 38.32  
Snow  
Snow 0.00 in - 0.20 in (1925)
Month to date snowfall  
Since 1 July snowfall  
Since 1 September snowfall  
Snow Depth -    
Sea Level Pressure  
Sea Level Pressure 30.05 in    
Wind  
Wind Speed 9 mph (South)    
Max Wind Speed 20 mph    
Max Gust Speed 25 mph    
Visibility 10 miles    
Events Rain    
T = Trace of Precipitation, MM = Missing Value Source: NWS Daily Summary

Daily Weather History Graph

Daily Weather History Graph

Search for Another Location

Airport:

Trip Planner

Search our weather history database for the weather conditions in past years. The results will help you decide how hot, cold, wet, or windy it might be!

Date:

Astronomy

Oct. 30, 2013 Rise Set
Actual Time 7:24 AM CDT 6:11 PM CDT
Civil Twilight 6:58 AM CDT 6:37 PM CDT
Nautical Twilight 6:28 AM CDT 7:07 PM CDT
Astronomical Twilight 5:58 AM CDT 7:37 PM CDT
Moon 3:21 AM CDT (10/30) 3:49 PM CDT (10/30)
Length of Visible Light 11h 38m
Length of Day
10h 46m
Waning Crescent, 17% of the Moon is Illuminated
Oct 30
Waning Crescent
Nov 3
New
Nov 9
First Quarter
Nov 17
Full
Nov 25
Last Quarter

Hourly Weather History & Observations

Time (CDT) Temp. Dew Point Humidity Pressure Visibility Wind Dir Wind Speed Gust Speed Precip Events Conditions
12:56 AM 63.9 °F 61.9 °F 93% 30.12 in 10.0 mi South 5.8 mph - N/A   Overcast
1:56 AM 63.9 °F 63.0 °F 97% 30.11 in 10.0 mi South 8.1 mph - N/A   Partly Cloudy
2:56 AM 63.9 °F 63.0 °F 97% 30.11 in 10.0 mi South 8.1 mph - N/A   Overcast
3:56 AM 63.9 °F 63.0 °F 97% 30.12 in 10.0 mi South 4.6 mph - N/A   Overcast
4:56 AM 63.0 °F 63.0 °F 100% 30.12 in 9.0 mi SSE 6.9 mph - N/A   Overcast
5:56 AM 63.9 °F 61.9 °F 93% 30.14 in 10.0 mi South 8.1 mph - N/A   Overcast
6:56 AM 61.9 °F 61.9 °F 100% 30.14 in 10.0 mi South 5.8 mph - N/A   Overcast
7:56 AM 61.9 °F 61.9 °F 100% 30.14 in 9.0 mi SSE 5.8 mph - N/A   Partly Cloudy
8:56 AM 64.9 °F 63.0 °F 93% 30.15 in 10.0 mi South 9.2 mph - N/A   Scattered Clouds
9:56 AM 68.0 °F 63.0 °F 84% 30.13 in 10.0 mi North - - N/A   Clear
10:56 AM 70.9 °F 63.9 °F 78% 30.12 in 10.0 mi SSW 13.8 mph 20.7 mph N/A   Mostly Cloudy
11:56 AM 74.8 °F 63.9 °F 69% 30.12 in 10.0 mi South 18.4 mph 24.2 mph N/A   Mostly Cloudy
12:14 PM 73.4 °F 64.4 °F 73% 30.12 in 10.0 mi South 16.1 mph - N/A   Overcast
12:32 PM 73.4 °F 64.4 °F 73% 30.10 in 10.0 mi SSW 19.6 mph 25.3 mph N/A   Mostly Cloudy
12:56 PM 74.8 °F 63.9 °F 69% 30.08 in 10.0 mi SSW 15.0 mph - N/A   Mostly Cloudy
1:56 PM 73.9 °F 63.9 °F 71% 30.04 in 10.0 mi South 19.6 mph - N/A   Partly Cloudy
2:56 PM 72.0 °F 63.0 °F 73% 30.02 in 10.0 mi South 11.5 mph 21.9 mph N/A   Scattered Clouds
3:56 PM 70.9 °F 63.9 °F 78% 30.01 in 10.0 mi South 12.7 mph - N/A   Partly Cloudy
4:56 PM 70.9 °F 63.9 °F 78% 29.98 in 10.0 mi SSE 11.5 mph - N/A   Scattered Clouds
5:19 PM 71.6 °F 64.4 °F 78% 29.99 in 10.0 mi SSE 6.9 mph - N/A   Mostly Cloudy
5:56 PM 68.9 °F 64.9 °F 87% 29.98 in 10.0 mi SE 8.1 mph - N/A   Mostly Cloudy
6:56 PM 68.9 °F 64.9 °F 87% 29.99 in 10.0 mi SSE 6.9 mph - N/A   Overcast
7:56 PM 65.8 °F 63.9 °F 93% 29.99 in 10.0 mi SSE 6.9 mph - N/A   Scattered Clouds
8:56 PM 65.8 °F 64.9 °F 97% 29.99 in 10.0 mi SSE 4.6 mph - N/A   Overcast
9:56 PM 68.0 °F 65.8 °F 93% 29.98 in 10.0 mi South 9.2 mph - N/A   Overcast
10:33 PM 66.2 °F 64.4 °F 94% 29.97 in 10.0 mi South 9.2 mph - N/A   Overcast
10:56 PM 66.9 °F 64.9 °F 93% 29.96 in 10.0 mi South 8.1 mph - N/A   Scattered Clouds
11:13 PM 66.2 °F 66.2 °F 100% 29.95 in 10.0 mi South 8.1 mph - 0.00 in Rain Light Rain
11:20 PM 66.2 °F 66.2 °F 100% 29.95 in 10.0 mi SSE 9.2 mph - 0.00 in Rain Light Rain
11:42 PM 66.2 °F 66.2 °F 100% 29.94 in 10.0 mi South 9.2 mph - 0.00 in Rain Light Rain
11:56 PM 66.9 °F 66.9 °F 100% 29.93 in 10.0 mi South 6.9 mph - 0.00 in   Mostly Cloudy